AirNav   Pilot Hours Calculator
 
 762 users online  

KOQW Maquoketa Municipal Airport
Maquoketa, Iowa, USA

GOING TO MAQUOKETA?


FAA INFORMATION EFFECTIVE 26 MARCH 2020

Location

FAA Identifier: OQW
Lat/Long: 42-03-00.3000N 090-44-19.7000W
42-03.005000N 090-44.328333W
42.0500833,-90.7388056
(estimated)
Elevation: 769.4 ft. / 234.5 m (surveyed)
Variation: 00E (2000)
From city: 3 miles W of MAQUOKETA, IA
Time zone: UTC -5 (UTC -6 during Standard Time)
Zip code: 52060

Airport Operations

Airport use: Open to the public
Activation date: 10/1958
Control tower: no
ARTCC: CHICAGO CENTER
FSS: FORT DODGE FLIGHT SERVICE STATION
NOTAMs facility: FOD (NOTAM-D service available)
Attendance: UNATNDD
SVC AVBL AT 1-800-553-5283.
Wind indicator: lighted
Segmented circle: no
Lights: ACTVT MIRL RY 15/33 - CTAF. PAPI RYS 15 & 33 OPER 24HRS.
Beacon: white-green (lighted land airport)
Operates sunset to sunrise.

Airport Communications

CTAF/UNICOM: 122.725
  • APCH/DEP SVC PRVDD BY CHICAGO ARTCC ON FREQS 133.95/281.4 (DUBUQUE RCAG).

Nearby radio navigation aids

VOR radial/distance  VOR name  Freq  Var
DBQr180/21.1DUBUQUE VORTAC115.8004E
CVAr327/23.5DAVENPORT VORTAC113.8004E

Airport Services

Fuel available: 100LL
SELF-SERVE FUEL AVBL 24 HR WITH CREDIT CARD.
Parking: hangars and tiedowns
Airframe service: NONE
Powerplant service: NONE
Bottled oxygen: NONE
Bulk oxygen: NONE

Runway Information

Runway 15/33

Dimensions: 3304 x 60 ft. / 1007 x 18 m
Surface: concrete, in good condition
Runway edge lights: medium intensity
RUNWAY 15  RUNWAY 33
Latitude: 42-03.250457N42-02.758565N
Longitude: 090-44.483975W090-44.172642W
Elevation: 769.1 ft.738.1 ft.
Traffic pattern: leftleft
Runway heading: 155335
Markings: nonprecision, in good conditionnonprecision, in good condition
Visual slope indicator: 2-light PAPI on left (3.00 degrees glide path)2-light PAPI on left (3.00 degrees glide path)
Runway end identifier lights: yesyes
Touchdown point: yes, no lightsyes, no lights
Obstructions: 56 ft. trees, 1507 ft. from runway, 59 ft. left of centerline, 23:1 slope to clear94 ft. tree, 2472 ft. from runway, 298 ft. left of centerline, 24:1 slope to clear

Airport Ownership and Management from official FAA records

Ownership: Publicly-owned
Owner: CITY OF MAQUOKETA
201 EAST PLEASANT STREET
MAQUOKETA, IA 52060
Phone 563-652-2484
Manager: GERALD SMITH
201 EAST PLEASANT STREET
MAQUOKETA, IA 52060-9671
Phone 563-652-6517

Airport Operational Statistics

Aircraft based on the field: 10
Single engine airplanes: 10
    
Aircraft operations: avg 62/week *
55% transient general aviation
45% local general aviation
* for 12-month period ending 15 November 2017

Additional Remarks

ULTRALIGHT ACTVTY ON & INVOF ARPT.
RY 33 IS CALM WIND RY.
FOR CD CTC CHICAGO ARTCC AT 630-906-8921.

Instrument Procedures

NOTE: All procedures below are presented as PDF files. If you need a reader for these files, you should download the free Adobe Reader.

NOT FOR NAVIGATION. Please procure official charts for flight.
FAA instrument procedures published for use from 26 March 2020 at 0901Z to 23 April 2020 at 0900Z.

 
IAPs - Instrument Approach Procedures
RNAV (GPS) RWY 15   download (165KB)
RNAV (GPS) RWY 33 **CHANGED**   download (207KB)
NOTE: Special Take-Off Minimums/Departure Procedures apply   download (274KB)

Other nearby airports with instrument procedures:

KDBQ - Dubuque Regional Airport (21 nm N)
KMXO - Monticello Regional Airport (21 nm NW)
KCWI - Clinton Municipal Airport (23 nm SE)
8C4 - Mathews Memorial Airport (25 nm SW)
KDVN - Davenport Municipal Airport (27 nm S)
 
Loc | Ops | Rwys | IFR | FBO | Links
Com | Nav | Svcs | Stats | Notes
Area around KOQW (Maquoketa Municipal Airport)
 
Road maps at: MapQuest Bing Google
 
Aerial photo
WARNING: Photo may not be current or correct
Aerial photo of KOQW (Maquoketa Municipal Airport)
Do you have a better or more recent aerial photo of Maquoketa Municipal Airport that you would like to share? If so, please send us your photo.

 
Sectional chart

 
Airport distance calculator
Flying to Maquoketa Municipal Airport? Find the distance to fly.

From to KOQW

Sunrise and sunset
Times for 08-Apr-2020
 Local
(UTC-5)
 Zulu
(UTC)
Morning civil twilight06:0511:05
Sunrise06:3311:33
Sunset19:3600:36
Evening civil twilight20:0501:05

Current date and time
Zulu (UTC)  08-Apr-2020 12:57:19
Local (UTC-5)  08-Apr-2020 07:57:19
 
METAR
KDBQ 
21nm N 
081253Z 00000KT 3SM R36/1000V1800FT BCFG SCT001 09/09 A2976 RMK AO2 SLP079 T00890089
KMXO 
22nm NW 
081255Z AUTO 00000KT M1/4SM FG OVC002 07/07 A2976 RMK AO2
KCWI 
23nm SE 
081156Z AUTO 15004KT M1/4SM FG OVC002 06/06 A2974 RMK AO2 SLP074 7//// T00610061 10128 20061 51004
KDVN 
27nm S 
081252Z AUTO 13004KT 1/2SM FG VV002 12/11 A2977 RMK AO2 SLP075 T01170111 $
KSFY 
28nm E 
081235Z AUTO 00000KT M1/4SM FG OVC001 07/07 A2976 RMK AO2
KMLI 
37nm S 
081252Z 00000KT 1/4SM R09/0700V1800FT FG VV001 11/10 A2975 RMK AO2 SLP074 T01060100
KPVB 
41nm N 
081235Z AUTO 00000KT 1SM 07/07 A2977 RMK AO1 T00730073
TAF
KDBQ 
21nm N 
081124Z 0812/0912 00000KT 1/4SM FG VV001 FM081400 18005KT 4SM BR SCT070 TEMPO 0814/0818 -SHRA BKN040 FM081800 30018G25KT P6SM -SHRA OVC070 PROB30 0822/0824 4SM -SHRA BKN040 FM090100 31013G20KT P6SM OVC050
NOTAMs
Click for the latest NOTAMs
NOTAMs are issued by the DoD/FAA and will open in a separate window not controlled by AirNav.

 

 
 

FBO, Fuel Providers, and Aircraft Ground Support

  
 Business Name 
 
 Contact 
 
 Services / Description 
 
Fuel Prices
 
Comments
  
City of Maquoketa (FBO) 563-652-6517
no information available

If you are affiliated with City of Maquoketa (FBO) and would like to show here your services, contact info, web link, logo, and more, click here
100LL
SS $4.50 
 Updated 05-Nov-2019
 
   write
SS=Self service
Update Fuel Prices
 

Would you like to see your business listed on this page?

 If your business provides an interesting product or service to pilots, flight crews, aircraft, or users of the Maquoketa Municipal Airport, you should consider listing it here.  To start the listing process, click on the button below
 
Add a business
 

Other Pages about Maquoketa Municipal Airport

www.maquoketaia.com/...
Page from the Iowa Airport Directory
 
Update a link
 
Copyright © AirNav, LLC. All rights reserved. Privacy Policy  Contact